Flag for U.S.A. Weather past 2 weeks in Daytona Beach, Florida, U.S.A.

Now
77 °F

Passing clouds.


Feels Like: 79 °F
Forecast: 74 / 91 °F
Wind: 6 mph from Southwest

Location: Daytona Beach Regional Airport

Current Time: Jul 2, 2015 at 1:27:20 AM

Latest Report: Jul 2, 2015 at 12:53 AM


Visibility: 10 mi

Pressure: 30.11 "Hg

Humidity: 79%

Dew point: 70 °F

Location of Daytona BeachLocation

Historic Weather in Daytona Beach — Graph

°F

Daytona Beach temperature yesterday

Maximum temperature yesterday: 90 °F (at 11:53 AM)
Minimum temperature yesterday: 75 °F (at 5:53 AM)
Average temperature yesterday: 81 °F

Past Weeks' High & Low Weather Summary

 TemperatureHumidityPressure
High95 °F (Jun 19, 1:53 PM)97% (Jun 17, 6:53 AM)30.17 "Hg (Jun 17, 6:53 AM)
Low72 °F (Jun 19, 8:53 PM)38% (Jun 28, 3:53 PM)29.95 "Hg (Jun 27, 4:53 PM)
Average82 °F76%30.08 "Hg
* Reported Jun 16 11:53 PM — Jul 1 11:53 PM, Daytona Beach, Weather by CustomWeather, © 2015

Note: Actual official high and low records may vary slightly from our data, if they occured in-between our weather recording intervals... More about our weather records

Advertising

Daytona Beach weather history for previous 24 hours

 ConditionsComfort  
Time TempWeatherWind HumidityBarometerVisibility
11:53 PM
Wed, Jul 1
78 °FPassing clouds.6 mph76%30.12 "Hg10 mi
10:53 PM80 °FPassing clouds.7 mph74%30.13 "Hg10 mi
9:53 PM81 °FPassing clouds.5 mph77%30.12 "Hg10 mi
8:53 PM82 °FScattered clouds.6 mph74%30.10 "Hg10 mi
7:53 PM86 °FScattered clouds.5 mph59%30.08 "Hg10 mi
6:53 PM88 °FScattered clouds.8 mph54%30.06 "Hg10 mi
5:53 PM88 °FPartly sunny.8 mph57%30.09 "Hg10 mi
4:53 PM89 °FBroken clouds.14 mph55%30.08 "Hg10 mi
3:53 PM83 °FBroken clouds.8 mph74%30.09 "Hg10 mi
2:53 PM79 °FLight rain. Mostly cloudy.6 mph77%30.11 "Hg10 mi
1:53 PM78 °FThunderstorms. Broken clouds.8 mph74%30.12 "Hg9 mi
12:53 PM88 °FThunderstorms. Broken clouds.9 mph61%30.12 "Hg9 mi
11:53 AM90 °FScattered clouds.9 mph56%30.14 "Hg10 mi
10:53 AM86 °FScattered clouds.9 mph67%30.14 "Hg10 mi
9:53 AM85 °FPassing clouds.8 mph75%30.14 "Hg9 mi
8:53 AM82 °FPassing clouds.8 mph79%30.15 "Hg9 mi
7:53 AM77 °FScattered clouds.5 mph85%30.14 "Hg9 mi
6:53 AM75 °FPassing clouds.3 mph88%30.13 "Hg9 mi
5:53 AM75 °FHigh level clouds.6 mph88%30.12 "Hg10 mi
4:53 AM76 °FHigh level clouds.5 mph85%30.11 "Hg10 mi
3:53 AM76 °FHigh level clouds.5 mph88%30.10 "Hg10 mi
2:53 AM76 °FHigh level clouds.6 mph88%30.11 "Hg9 mi
1:53 AM76 °FHigh level clouds.3 mph88%30.11 "Hg9 mi
Weather by CustomWeather, © 2015

See weather overviewHow to use our weather pages